GFSFLT2_250_spd_057.txt.gz
Wind_Speed
90 94 96 91 94 82 83 82 73 74 66 60 58 53 50 47 45 40 40 38 36 32 26 23 22 16 17 17 19 17 17 16
96 95 94 100 95 93 90 87 80 82 72 66 63 58 57 53 48 43 31 45 40 38 33 27 24 21 19 20 22 22 18 18
104 95 95 98 97 103 97 91 85 85 77 74 69 65 63 59 57 53 59 51 46 43 38 31 25 26 22 22 23 23 24 22
99 99 104 104 100 106 107 99 90 88 86 83 79 73 71 69 64 59 57 55 52 49 41 35 32 28 26 25 23 23 26 25
102 102 106 105 106 98 96 101 99 94 88 89 86 81 76 75 70 67 64 60 55 50 44 41 37 33 29 28 24 24 25 27
101 112 113 111 112 114 112 108 105 101 97 94 90 82 78 82 78 75 69 65 60 54 49 45 41 37 36 33 30 28 27 28
97 107 106 109 112 111 110 102 103 104 104 99 95 91 87 89 82 80 77 68 64 57 53 50 43 39 38 37 34 32 30 30
91 101 102 110 113 114 115 109 103 107 109 104 103 97 95 98 89 83 76 72 68 66 60 54 47 45 43 42 40 36 34 34
85 95 101 106 108 114 115 112 110 111 111 111 101 102 96 95 94 82 77 75 72 66 60 57 52 50 49 46 43 40 39 36
81 91 97 92 101 109 113 113 112 114 124 117 110 106 99 99 92 86 84 81 77 72 67 63 59 55 54 49 47 45 42 38
79 85 82 85 95 101 106 103 114 116 123 121 116 110 104 99 100 94 87 83 79 75 71 65 60 61 60 55 53 48 45 41
71 73 70 81 90 92 99 103 114 119 125 126 123 116 104 110 102 96 90 84 80 75 71 68 66 65 64 60 57 52 49 47
60 62 70 77 75 79 92 104 104 112 125 129 126 117 115 108 105 98 91 88 84 77 73 70 70 71 68 65 60 59 55 48
45 55 62 64 71 80 84 95 103 111 124 129 129 112 106 106 106 98 93 91 87 80 77 75 75 75 73 67 67 60 54 48
39 48 52 59 67 77 81 90 100 109 119 127 124 115 113 110 108 100 97 94 88 83 82 79 76 76 74 71 65 60 56 53
31 38 47 53 61 65 74 84 94 106 113 123 124 119 119 111 106 102 96 94 89 86 83 79 79 80 74 68 63 62 60 56
23 32 41 51 63 65 68 77 89 99 106 120 122 122 120 113 105 100 97 97 91 88 85 81 81 79 73 69 67 68 65 61
25 33 40 47 52 58 70 79 87 96 101 113 120 123 120 114 108 98 93 94 95 87 81 81 81 79 74 71 73 71 68 66
22 30 37 42 49 55 62 74 86 96 100 111 119 123 119 113 106 100 88 85 88 90 87 83 81 79 76 75 77 74 71 68

GFSFLT2_250_spd_063.txt.gz
Wind_Speed
89 89 84 82 78 73 75 72 73 71 67 64 61 56 51 54 59 62 53 34 30 26 34 30 26 21 18 17 20 22 22 22
93 92 89 90 84 85 79 74 73 70 69 67 67 62 58 54 59 57 64 35 29 26 37 35 29 27 23 20 20 20 23 25
92 91 93 94 94 93 89 81 76 74 70 71 77 73 68 58 58 53 55 34 38 40 39 38 34 29 28 25 24 22 22 23
92 92 92 91 92 95 95 89 83 78 71 77 82 80 71 64 63 66 59 45 50 48 45 40 41 38 34 31 27 26 24 23
93 95 97 98 97 99 101 95 91 86 77 91 84 83 81 70 68 67 67 55 64 52 44 48 46 41 40 37 32 29 29 28
89 96 102 99 98 101 103 102 96 93 84 91 92 89 86 79 76 76 67 67 67 62 46 43 47 46 42 39 36 32 31 31
94 95 103 101 99 100 101 98 96 97 91 103 100 95 91 90 81 76 69 63 70 65 62 56 41 41 37 45 41 38 34 33
101 102 106 104 103 104 102 96 96 96 97 113 104 97 94 92 86 80 70 65 72 68 68 57 44 50 51 49 46 43 40 33
92 104 109 106 100 104 104 98 102 103 106 113 107 104 103 98 94 85 81 76 82 66 57 64 54 46 41 44 49 50 45 39
86 94 100 95 106 108 107 104 106 112 117 114 108 110 110 99 95 90 87 85 87 79 70 65 59 36 26 36 46 51 49 45
78 90 92 91 99 105 108 107 111 115 117 118 113 116 115 106 100 96 93 91 89 86 84 78 67 67 57 57 36 45 56 55
67 79 83 88 96 96 97 104 111 115 119 120 118 120 116 113 105 102 98 99 96 97 92 97 81 71 66 56 58 62 65 71
50 65 74 83 87 91 93 93 103 110 114 119 120 121 119 118 114 110 106 103 104 104 99 93 91 83 72 69 64 68 66 62
44 49 64 72 76 82 85 90 98 100 109 115 119 123 123 121 119 119 115 111 110 110 105 100 99 93 86 81 72 66 70 64
36 42 51 62 66 67 75 82 95 100 102 107 114 124 124 125 122 123 121 119 113 114 112 108 103 103 96 89 84 74 62 59
27 36 43 50 54 59 63 71 81 92 97 98 105 119 124 125 126 124 123 123 118 117 115 111 109 104 101 97 93 94 91 80
21 27 33 40 47 53 58 66 72 80 90 93 98 113 122 123 125 127 127 125 124 117 115 116 112 107 106 102 100 95 92 89
18 23 27 34 39 45 52 57 64 73 84 91 96 107 118 120 125 127 129 127 126 125 116 118 115 112 110 107 103 101 96 93
10 16 25 31 37 39 43 49 55 61 72 85 92 104 112 116 123 128 128 127 125 125 125 122 121 114 111 106 103 101 102 96

GFSFLT2_250_spd_069.txt.gz
Wind_Speed
81 80 80 80 78 78 78 77 75 74 71 72 68 64 62 62 62 61 59 51 47 46 44 39 26 22 23 20 19 22 28 29
86 85 84 83 82 82 80 78 78 80 81 76 72 65 61 58 60 61 59 56 53 48 46 43 33 27 30 34 26 22 26 30
92 91 89 88 86 86 85 83 82 83 82 77 75 71 65 62 60 58 58 58 56 55 47 47 39 32 30 34 35 28 27 27
99 98 94 92 91 89 89 89 89 86 85 81 79 75 71 68 64 60 60 59 59 56 52 49 44 38 34 30 36 34 27 26
100 100 99 97 95 94 93 93 92 90 85 84 82 79 76 73 69 66 64 61 57 54 50 48 49 49 35 35 35 36 32 29
101 100 100 99 99 97 97 96 96 91 87 87 85 83 79 79 75 72 71 67 63 56 53 51 51 52 48 38 37 37 36 32
101 102 101 101 103 103 103 103 101 95 91 89 90 87 84 81 80 77 77 73 68 63 61 54 59 58 55 48 42 43 38 35
98 100 104 103 105 107 107 107 106 104 101 94 94 93 89 86 84 82 80 78 75 72 65 57 56 61 59 58 51 47 45 43
99 100 102 106 109 111 109 109 107 107 106 102 101 99 95 91 87 85 84 83 80 78 73 65 64 63 63 60 57 51 54 49
101 104 104 106 110 114 114 113 112 109 109 108 106 107 104 100 95 91 86 85 83 84 81 75 69 69 69 69 66 61 57 53
83 94 106 112 116 118 119 120 117 115 113 112 111 111 111 109 105 99 94 88 87 86 89 83 75 79 69 70 68 65 60 56
87 90 92 100 115 123 123 121 120 120 117 117 114 114 115 114 112 108 101 98 92 91 92 89 86 80 78 71 68 67 61 57
81 89 93 98 103 109 116 118 122 121 119 119 117 116 117 118 116 114 108 104 101 94 94 94 94 89 82 82 76 72 63 59
60 68 76 88 97 101 102 103 105 111 118 117 117 118 119 119 121 118 116 110 108 103 98 96 99 96 91 83 79 80 75 70
45 51 59 69 74 81 89 95 96 98 103 103 112 116 119 120 120 121 120 117 111 108 105 100 102 102 100 95 88 83 87 82
37 42 47 54 59 62 70 78 83 86 91 96 94 107 119 119 120 123 123 122 116 112 109 106 106 106 106 101 98 90 88 87
26 30 33 42 48 53 55 59 66 73 79 84 89 89 108 122 121 121 124 124 122 116 114 113 110 110 109 107 109 104 88 87
23 25 28 31 38 43 48 51 55 60 68 75 78 85 96 111 124 123 123 126 125 122 117 116 117 117 116 115 113 106 100 90
29 24 24 26 27 33 40 44 49 54 58 66 73 78 89 103 113 123 123 125 127 125 121 119 122 122 121 119 120 112 105 102

GFSFLT2_250_spd_072.txt.gz
Wind_Speed
83 81 81 79 79 79 78 77 73 70 67 65 62 60 60 60 59 59 56 51 45 43 43 36 32 26 22 19 22 20 20 23
87 84 84 82 81 80 79 77 77 75 72 69 67 63 59 58 57 57 58 55 51 49 43 40 36 37 29 24 22 25 28 24
90 88 86 85 84 83 81 78 77 77 76 74 72 69 65 61 60 57 57 56 53 53 51 46 41 41 36 35 25 28 30 30
95 94 91 88 86 85 84 81 78 77 77 78 76 74 71 68 64 63 60 57 55 54 52 51 51 47 39 35 29 27 29 29
100 97 95 93 91 89 87 85 82 79 77 78 80 80 78 74 71 69 66 61 59 54 53 50 51 52 42 45 36 32 29 29
98 97 96 95 93 92 90 89 86 81 81 80 80 81 82 81 78 74 73 67 64 61 58 53 47 46 48 47 44 36 31 32
98 98 99 99 99 97 95 94 92 88 87 85 84 85 83 83 82 80 78 75 69 65 63 59 53 52 53 53 50 48 38 37
99 101 102 102 102 102 101 99 98 95 92 91 90 90 89 87 86 85 83 80 76 73 69 66 61 54 52 53 53 53 54 42
98 99 102 103 102 103 103 104 104 103 99 97 95 94 94 93 92 90 88 85 83 79 77 72 68 63 60 59 58 59 56 52
101 103 103 102 104 106 107 106 107 107 106 104 102 99 99 99 97 95 93 90 88 86 82 80 76 72 66 61 66 62 63 59
96 102 104 107 107 108 110 112 112 111 111 110 108 107 105 104 104 100 97 95 92 90 88 85 83 80 74 71 66 72 70 66
84 93 101 106 110 113 114 112 115 118 117 115 114 111 112 110 108 107 103 100 96 94 93 90 89 87 82 80 78 67 71 72
83 86 90 96 102 109 113 115 118 119 119 119 118 114 115 114 113 113 111 106 102 98 96 95 94 92 89 88 84 79 75 70
84 87 91 95 98 101 101 105 114 118 119 120 120 120 119 118 118 117 117 115 110 104 100 97 96 97 95 93 90 85 78 76
72 81 86 93 97 99 100 99 101 103 103 109 116 120 121 125 122 122 120 120 118 112 107 103 100 99 99 98 95 93 85 79
56 61 67 74 81 87 90 95 97 98 98 96 99 101 111 125 127 127 125 123 122 119 115 111 107 104 101 101 100 98 91 86
46 50 55 62 65 69 71 76 82 87 87 87 87 94 96 99 115 128 128 130 125 123 120 118 115 112 108 104 104 102 98 94
45 45 45 48 49 50 57 62 65 69 69 75 80 83 86 92 99 108 127 130 131 129 126 124 120 119 116 111 109 107 103 100
45 46 47 48 50 48 45 48 53 58 60 61 64 72 77 83 89 97 106 122 131 130 131 129 125 120 121 117 115 113 106 103

GFSFLT2_250_spd_075.txt.gz
Wind_Speed
83 82 81 80 79 76 73 71 69 67 66 66 65 64 63 62 61 58 55 52 47 46 41 39 39 33 28 25 18 15 18 19
86 85 83 81 82 80 77 76 73 69 66 65 65 63 62 61 61 60 58 55 53 50 46 41 41 37 32 31 26 14 18 20
91 88 86 83 80 79 79 78 76 73 71 68 66 64 63 61 61 60 59 57 53 52 50 47 45 43 40 38 34 23 18 17
95 90 89 86 84 81 79 78 78 78 77 75 72 70 67 65 63 61 59 57 53 52 54 52 51 50 44 40 38 38 28 25
99 96 93 90 88 84 82 79 78 78 79 79 79 77 74 72 69 67 64 62 57 53 51 51 51 51 51 46 43 38 34 33
100 99 97 95 92 90 87 84 82 79 80 81 81 81 81 79 76 73 71 67 64 60 57 53 52 51 50 52 51 47 43 37
99 98 96 95 94 93 91 89 86 84 83 83 82 83 83 82 81 79 77 74 71 67 63 59 54 52 49 45 48 50 50 46
101 101 100 99 99 98 96 94 93 90 89 88 88 87 85 85 84 82 82 81 78 74 70 67 64 60 56 51 48 51 52 51
101 103 103 104 103 102 101 100 99 98 96 93 91 91 91 90 89 86 85 85 84 82 78 74 71 67 64 61 55 53 55 56
102 103 102 102 104 105 105 105 103 102 101 98 97 96 94 94 93 91 89 87 87 86 84 82 79 75 71 68 63 59 58 59
97 102 103 103 104 105 107 108 107 107 107 106 103 101 100 99 98 95 93 91 90 89 88 86 84 82 78 75 71 65 65 62
90 96 101 104 105 105 106 108 109 111 110 109 109 108 105 104 103 102 100 96 94 93 93 91 89 87 85 82 78 73 69 67
80 88 95 100 104 107 107 108 110 111 114 114 114 113 113 111 110 109 108 106 102 99 98 97 95 92 90 88 85 81 77 74
78 81 84 88 94 101 107 110 112 114 114 116 117 117 118 117 115 114 114 113 112 108 105 104 102 100 96 94 91 88 84 82
79 80 81 84 87 90 94 101 108 113 117 118 119 118 118 119 120 119 118 118 117 116 112 110 109 106 104 101 98 94 90 89
74 78 81 85 87 89 91 92 95 99 102 107 113 119 122 122 122 123 124 124 123 121 120 117 114 112 110 108 106 102 96 94
65 68 74 78 81 85 87 90 94 97 99 99 101 102 105 112 121 129 129 127 127 126 124 124 122 117 116 113 110 109 104 100
57 58 61 65 70 75 79 83 87 90 92 93 94 95 98 102 103 106 115 127 132 130 129 129 128 125 121 119 115 113 111 108
58 62 63 63 65 68 70 74 79 81 84 86 87 86 87 88 90 95 103 109 115 124 133 130 132 131 129 122 121 119 116 114

GFSFLT2_250_spd_078.txt.gz
Wind_Speed
89 83 81 82 77 76 70 70 71 72 66 68 65 63 61 59 59 56 51 50 49 45 41 36 34 30 29 24 21 19 14 10
90 88 85 81 84 79 76 74 72 69 66 65 65 64 64 62 61 59 56 53 52 50 47 43 39 35 34 32 30 22 22 14
94 92 87 83 82 83 83 78 77 71 71 67 66 64 63 63 63 63 60 57 52 51 50 48 45 43 40 39 36 35 29 22
95 92 91 88 83 82 83 83 83 77 71 73 70 67 66 65 62 62 60 59 50 47 52 51 49 49 47 43 42 40 35 33
101 97 94 92 88 84 84 85 86 83 80 80 77 73 70 68 66 64 61 60 41 52 36 38 50 51 52 50 47 45 44 40
104 103 96 94 91 89 86 85 86 90 84 85 83 80 78 75 72 68 66 64 63 63 58 48 37 47 54 55 55 51 48 47
103 102 100 96 94 93 90 86 86 84 87 89 89 87 85 82 79 76 72 70 67 65 62 60 57 51 44 51 56 56 55 53
100 101 101 99 96 95 94 91 89 87 86 88 89 90 89 87 85 82 79 76 74 71 68 65 63 60 57 51 51 54 55 56
99 100 103 103 102 101 98 97 95 95 89 89 89 89 90 89 88 86 84 82 80 78 75 72 69 67 64 61 60 54 52 53
98 102 104 105 105 106 106 104 102 98 97 94 93 92 91 90 89 88 86 85 83 82 81 78 76 73 71 69 66 61 56 52
94 101 101 103 105 107 108 106 105 102 101 99 97 96 95 94 92 90 88 87 85 85 83 82 81 80 79 77 73 68 64 59
89 95 99 99 104 105 106 107 108 107 106 104 103 103 97 98 99 97 95 93 91 89 87 86 84 83 82 82 80 76 72 67
81 90 96 98 103 105 108 107 108 108 109 110 109 110 104 107 104 103 102 99 97 95 93 92 90 88 86 85 85 83 80 76
74 78 87 95 101 105 105 109 112 112 111 111 113 115 113 113 111 109 108 107 105 102 100 98 96 95 92 90 89 88 86 84
72 75 78 83 91 100 104 108 110 112 115 117 117 117 118 119 118 117 115 113 112 111 109 106 103 101 100 97 94 93 91 88
75 75 77 79 82 85 91 99 104 109 115 118 119 121 122 122 122 122 122 121 120 118 117 116 113 110 107 106 103 99 97 95
71 74 78 80 81 83 86 90 94 99 105 111 117 120 123 125 126 126 125 125 125 125 125 124 123 121 118 115 113 109 106 103
65 67 70 73 76 81 86 89 91 93 96 99 103 109 115 120 125 128 129 128 128 130 129 129 129 127 127 124 122 118 115 113
57 61 64 67 70 73 76 81 86 91 94 96 100 102 106 110 114 119 124 128 130 131 131 131 131 132 132 131 129 127 124 123

GFSFLT2_250_spd_084.txt.gz
Wind_Speed
93 90 87 81 77 73 71 73 79 81 65 61 59 59 36 46 48 50 50 50 37 33 34 32 31 31 29 25 22 19 19 20
101 98 90 83 81 78 75 75 81 78 74 73 72 73 71 62 56 50 49 48 43 41 40 41 38 37 33 29 26 22 24 22
99 97 90 87 82 79 80 80 78 79 77 73 73 78 73 69 61 57 55 45 43 44 40 35 38 44 39 36 32 30 27 28
90 94 96 93 91 90 89 78 80 84 83 76 82 86 80 78 74 67 61 54 49 39 28 28 43 35 40 33 34 33 33 31
99 94 102 98 92 92 91 89 88 87 88 85 84 81 80 79 77 70 65 59 57 52 45 37 32 16 34 33 37 32 29 32
96 95 98 97 98 94 92 90 89 98 92 90 84 76 79 75 75 73 70 68 64 61 58 58 47 35 44 34 33 35 33 44
96 101 100 95 99 100 96 92 102 93 91 88 83 77 73 72 71 72 72 72 70 68 66 66 65 58 49 42 43 35 37 45
105 99 86 90 99 105 102 101 107 103 98 90 82 80 78 75 72 72 71 71 71 71 70 68 63 55 47 52 49 48 45 46
101 91 93 96 95 93 101 109 107 103 97 90 90 86 84 84 80 77 74 72 71 70 69 68 65 64 58 65 57 51 52 52
92 97 97 102 100 98 101 108 117 108 98 97 90 86 86 90 89 84 81 78 75 73 71 70 68 70 70 68 63 60 62 65
80 86 95 96 97 98 101 109 111 106 100 99 93 93 93 94 95 91 89 85 82 79 77 76 75 75 76 81 77 75 74 69
75 81 86 96 99 97 100 106 104 106 107 102 99 102 101 98 95 92 92 92 91 88 86 84 82 80 79 77 77 77 81 73
72 78 89 92 90 99 104 110 104 106 111 107 106 103 98 99 99 99 97 96 96 95 93 91 89 87 85 83 83 80 81 83
70 74 82 82 92 97 101 102 103 104 109 109 111 109 105 102 105 105 103 100 99 97 96 96 95 95 94 92 92 91 89 87
69 68 69 75 82 92 100 104 105 105 106 112 115 114 109 107 107 107 106 105 105 102 100 98 99 99 99 99 98 98 97 95
69 70 71 72 79 87 92 98 102 102 103 109 113 114 113 112 112 111 109 109 108 107 106 104 104 103 101 100 100 101 100 100
71 71 73 75 76 80 86 89 95 100 103 107 109 112 113 115 116 116 114 114 113 112 111 110 109 108 107 106 105 105 104 103
73 71 75 76 78 81 85 88 90 96 99 104 110 109 114 117 120 120 121 120 120 119 117 116 115 114 114 113 112 112 111 110
70 75 80 80 81 81 83 85 88 92 94 99 104 108 113 113 116 120 124 125 125 126 124 124 123 122 121 120 119 118 118 117

GFSFLT2_250_spd_087.txt.gz
Wind_Speed
91 87 83 79 76 70 76 81 80 76 67 64 62 59 52 50 29 33 28 22 39 25 21 18 21 18 18 18 16 16 13 13
94 93 89 89 81 82 75 76 82 77 72 70 74 75 66 62 54 42 44 39 44 24 23 21 16 24 24 22 23 22 19 19
99 96 94 91 85 81 76 77 78 78 78 75 76 76 68 64 60 53 52 49 55 41 37 34 25 30 32 24 28 29 25 23
92 91 96 94 89 85 82 77 79 81 82 77 78 78 73 68 61 54 61 51 42 44 36 29 23 33 24 23 23 32 28 27
91 93 96 95 92 91 87 88 87 84 82 84 73 84 79 72 61 61 56 57 51 49 44 35 34 42 22 26 36 27 26 30
92 91 90 94 99 90 91 95 97 94 83 85 87 85 84 78 74 71 65 66 55 57 51 44 45 36 28 18 34 38 27 28
89 91 94 91 96 97 98 101 101 95 83 83 89 87 85 83 80 80 78 74 70 63 61 56 51 41 38 34 31 43 35 35
90 91 91 91 89 93 101 105 105 98 92 89 87 86 84 86 87 86 82 81 79 77 69 63 57 56 53 44 39 51 45 38
90 90 90 90 93 98 103 112 110 101 97 93 90 88 84 83 86 89 90 89 86 84 78 72 69 66 64 61 53 54 50 44
98 98 96 93 91 93 101 105 104 103 99 97 95 93 90 84 85 86 88 89 90 88 85 81 79 76 74 74 75 73 60 49
97 95 98 98 95 93 103 108 99 100 102 100 100 97 94 90 88 88 88 88 87 87 87 85 83 81 80 81 80 74 68 64
101 102 97 93 94 95 99 97 99 102 104 102 102 101 100 96 92 90 93 93 89 87 86 85 83 81 80 81 80 79 77 76
84 94 101 99 99 103 107 103 98 100 103 103 104 104 105 102 101 99 97 95 95 92 89 86 86 85 83 84 82 80 79 85
77 83 85 85 91 93 100 102 101 100 99 98 98 100 106 109 109 105 102 99 98 97 95 94 92 88 87 86 85 84 84 86
66 71 73 74 80 90 95 100 105 105 105 105 105 107 114 112 112 109 107 105 104 103 100 101 99 97 94 92 91 90 90 89
64 63 63 70 77 82 87 96 105 104 104 106 110 112 110 109 112 113 112 113 110 107 105 105 104 102 102 102 101 99 98 97
66 67 67 69 70 74 79 86 91 99 104 107 109 114 114 112 111 111 114 118 116 114 111 111 109 108 107 107 107 107 107 106
67 69 71 73 75 79 81 81 83 87 92 98 105 109 111 114 116 115 115 118 120 120 118 116 114 114 113 113 112 111 110 110
65 69 72 77 79 80 82 82 81 85 86 92 97 102 107 110 115 114 114 116 118 121 122 122 121 120 119 119 118 118 118 116